Regional Weather Roundup
Issued by NWS

Home | Current Version | Previous Version | Graphics & Text | Print | Product List | Glossary On
Versions: 1 2 3 4 5 6 7 8 9 10 11 12 13 14 15 16 17 18 19 20 21 22 23 24 25 26 27 28 29 30 31 32 33 34 35 36 37 38 39 40 41 42 43 44 45 46 47 48 49 50
000
ASUS43 KMPX 271910
RWRMN
WEATHER ROUNDUP FOR MINNESOTA
NATIONAL WEATHER SERVICE TWIN CITIES/CHANHASSEN MN
200 PM CDT MON JUL 27 2015


NOTE: "FAIR" INDICATES FEW OR NO CLOUDS BELOW 12,000 FEET WITH NO
SIGNIFICANT WEATHER AND/OR OBSTRUCTIONS TO VISIBILITY. N/A MEANS
CURRENT SKY AND/OR WEATHER CONDITIONS ARE NOT AVAILABLE.

MNZ060>063-068>070-272000-
   Twin Cities Metro

CITY           SKY/WX    TMP DP  RH WIND       PRES   REMARKS
TWIN CITIES    PTSUNNY   84  71  65 SE14G21   29.94S
ST PAUL        PTSUNNY   83  71  67 SE13      29.94F
CRYSTAL        PTSUNNY   86  71  60 SE14G20   29.92S HX  91
LAKEVILLE      CLOUDY    81  72  74 SE9G16    29.95S
EDEN PRAIRIE   PTSUNNY   83  72  69 SE17      29.92S
SOUTH ST PAUL  PTSUNNY   83  69  62 SE9G16    29.95S
LAKE ELMO      FAIR      82  72  69 SE13      29.97S
$$
MNZ001>005-007-008-013>017-022>024-027-028-272000-
   Northwest Minnesota

CITY           SKY/WX    TMP DP  RH WIND       PRES   REMARKS
BEMIDJI        PTSUNNY   85  70  61 SE12      29.92S
HALLOCK        MOSUNNY   86  72  62 SE13      29.84F HX  92
ROSEAU         MOSUNNY   84  73  70 SE9       29.89F HX  91
WARROAD        MOSUNNY   84  73  70 NE7       29.90F HX  91
THIEF RVR FALL MOSUNNY   82  70  65 SE10      29.88S
CROOKSTON      MOSUNNY   84  72  65 S9        29.86F
FOSSTON        PTSUNNY   84  70  61 SE13      29.90S
DETROIT LAKES  PTSUNNY   82  68  61 S15       29.90S
MOORHEAD       PTSUNNY   82  72  69 SE10      29.85F
PARK RAPIDS    PTSUNNY   85  69  58 S14       29.91F
MAHNOMEN       FAIR      83  70  65 S8        29.88F
$$
MNZ006-009>011-018-025>026-272000-
   North Central Minnesota

CITY           SKY/WX    TMP DP  RH WIND       PRES   REMARKS
BAUDETTE       MOSUNNY   86  65  49 SE10G18   29.91S
FLAG ISLAND    PTSUNNY   84  72  65 S5        29.90F
INTL FALLS     SUNNY     86  63  45 SE14G21   29.92F
WASKISH        MOSUNNY   84  66  54 S6        29.92S
BIG FORK       SUNNY     86  66  51 S6        29.94S
LONGVILLE      MOSUNNY   84  68  58 SE8G18    29.94S
GRAND RAPIDS   SUNNY     84  63  48 SE13G21   29.95S
CRANE LAKE     SUNNY     84  61  45 S7        29.96F
ORR            SUNNY     88  57  35 SE10      29.92F
COOK           SUNNY     86  63  45 SE8G18    29.95F
WALKER         MOCLDY    83  70  64 SE7       29.92S
$$
MNZ012-019>021-037-272000-
   Northeast Minnesota

CITY           SKY/WX    TMP DP  RH WIND       PRES   REMARKS
DULUTH         MOSUNNY   84  63  49 SE14      29.98F
ELY            SUNNY     88  54  31 S12G17    29.97S
HIBBING        SUNNY     87  63  44 SE12G20   29.95F
EVELETH        SUNNY     86  57  37 SE12G17   29.97F
DULUTH HARBOR  SUNNY     79  72  78 NE8       29.95F
TWO HARBORS    SUNNY     88  70  55 SE7       29.96F HX  92
SILVER BAY     SUNNY     84  64  51 SE7       29.97F
GRAND MARAIS     N/A     62  56  80 SW9       29.98S
G MARAIS ARPRT   N/A     82  57  42 S7          N/A
$$
MNZ029>031-032-039>041-046>048-054>057-064-272000-
   West Central Minnesota

CITY           SKY/WX    TMP DP  RH WIND       PRES   REMARKS
FERGUS FALLS   MOSUNNY   84  70  61 SE12      29.85S
WHEATON        MOSUNNY   82  73  74 SE16      29.85F
MORRIS         MOSUNNY   84  73  70 SE16      29.86S HX  91
ALEXANDRIA     MOSUNNY   83  71  67 SE16G25   29.91F
ELBOW LAKE     FAIR      84  73  68 SE17      29.87S HX  90
WADENA         MOSUNNY   84  70  61 SE15      29.90F
GLENWOOD       MOSUNNY   84  73  70 SE13      29.91S HX  91
APPLETON       PTSUNNY   84  73  70 SE12      29.85S HX  91
BENSON         MOSUNNY   86  72  62 S14G21    29.87S HX  92
ORTONVILLE     MOSUNNY   82  73  74 SE12G18   29.86R
MADISON        MOSUNNY   81  75  83 SE14      29.86S
WILLMAR        PTSUNNY   82  75  78 SE14G22   29.91R
$$
MNZ033>034-036-042>043-049>051-058-059-272000-
   Central Minnesota

CITY           SKY/WX    TMP DP  RH WIND       PRES   REMARKS
ST CLOUD       MOSUNNY   86  71  60 SE16      29.91F HX  91
SAUK CENTRE    MOCLDY   N/A N/A N/A SE12G17   29.91S
PAYNESVILLE    MOSUNNY   82  71  71 E13G22    29.91F
AITKIN         MOSUNNY   86  70  58 S13       29.94S HX  90
PINE RIVER     PTSUNNY   82  72  69 SE13      29.96S
BRAINERD       CLOUDY    81  69  67 SE8       29.93F
STAPLES        MOSUNNY   82  68  61 SE9       29.91F
LONG PRAIRIE   PTSUNNY   81  70  69 SE10G18   29.93R
LITTLE FALLS   MOSUNNY   86  68  54 SE10G21   29.92S
LITCHFIELD     MOSUNNY   84  75  74 SE12      29.91S HX  92
BUFFALO        PTSUNNY   83  71  64 SE10G16   29.93F
MAPLE LAKE     PTSUNNY   84  75  74 SE9       29.93S HX  92
$$
MNZ037-044-045-052-053-272000-
   East Central Minnesota

CITY           SKY/WX    TMP DP  RH WIND       PRES   REMARKS
PRINCETON      MOSUNNY   88  72  58 SE13      29.93S HX  94
MORA           MOSUNNY   82  68  61 S9G16     29.96F
CAMBRIDGE      MOSUNNY   86  70  58 SE12      29.93S HX  90
RUSH CITY      MOSUNNY   83  67  58 S12G20    29.95F
MOOSE LAKE     MOSUNNY   84  66  54 SE9       29.94F
HINCKLEY       MOCLDY    82  70  65 SE10G16   29.95F
CLOQUET        MOSUNNY   82  63  51 SE10G18   29.97F
MCGREGOR       MOSUNNY   82  68  61 SE10G17   29.95S
$$
MNZ071>073-080-081-089-090-097-098-272000-
   Southwest Minnesota

CITY           SKY/WX    TMP DP  RH WIND       PRES   REMARKS
MONTEVIDEO     PTSUNNY   84  75  74 S13G18    29.90R HX  92
GRANITE FALLS  PTSUNNY   82  74  77 SE13G18   29.89S
CANBY          MOSUNNY   83  74  74 SE14      29.86F HX  90
MARSHALL       MOSUNNY   84  73  70 SE14G21   29.88S HX  91
REDWOOD FALLS  CLOUDY    81  74  79 SE14G24   29.88F
OLIVIA         CLOUDY    79  72  78 SE16      29.89F
PIPESTONE      SUNNY     84  72  65 S8        29.89S
WINDOM         PTSUNNY   81  72  74 E12       29.90F
WORTHINGTON    MOSUNNY   81  68  65 SE12      29.91R
JACKSON        CLOUDY    81  72  74 SE15G22   29.92F
TRACY          MOSUNNY   84  75  74 SE14      29.89S HX  92
SLAYTON        MOSUNNY   83  71  67 SE15      29.90F
$$
MNZ065>067-074>077-082>085-091>093-272000-
   South Central Minnesota

CITY           SKY/WX    TMP DP  RH WIND       PRES   REMARKS
MANKATO        CLOUDY    79  72  78 SE16G22   29.93F
NEW ULM        CLOUDY    81  73  78 SE13      29.92S
ST JAMES       CLOUDY    81  75  83 SE16      29.92S
FAIRMONT       CLOUDY    77  68  73 SE14      29.91F
GLENCOE        CLOUDY    83  75  78 SE13      29.92F HX  90
FARIBAULT      CLOUDY    81  73  78 SE12G17   29.96S
OWATONNA       CLOUDY    81  72  74 SE14      29.96F
WASECA         CLOUDY    79  72  78 SE14      29.96F
ALBERT LEA     CLOUDY    81  73  78 SE16      29.97S
$$
MNZ078>079-086>088-094>096-272000-
   Southeast Minnesota

CITY           SKY/WX    TMP DP  RH WIND       PRES   REMARKS
ROCHESTER      CLOUDY    81  72  74 S12       30.00F
RED WING       PTSUNNY   84  70  61 SE12      29.95F
STANTON        CLOUDY    82  71  68 SE12      29.94F
DODGE CENTER   CLOUDY    81  72  74 SE14      29.99S
WINONA         CLOUDY    82  68  61 CALM      29.99F
AUSTIN         CLOUDY    81  73  78 SE9       29.98F
PRESTON        CLOUDY    81  70  69 S8        30.02S
$$
ABBREVIATIONS USED IN REMARKS
   TC - TEMPERATURES IN CELSIUS
  WCI - WIND CHILL INDEX
   HX - HEAT INDEX
  VSB - VISIBILITY
$$


USA.gov is the U.S. government's official web portal to all federal, state and local government web resources and services.